sat.trackr.live / text

‹ back to catalog

STARLINK-34531

NORAD 64750 · 2025-144AC

PAYLOAD ACTIVE UNKNOWN

§ Identity

Operator
Country
US
Launch date
2025-07-02
Launch site
AFETR
Launch vehicle
Mass (kg)
RCS (m²)

Purposes: comms

External: N2YO · Heavens-Above · Gunter

§ Orbital elements

Epoch: 2026-09-20T17:45:19.022400Z

Period
93.85 min
Inclination
53.1608°
Eccentricity
0.0001299
Mean motion
15.34408381 rev/d
Perigee alt
461.8 km
Apogee alt
463.6 km
Semi-major
6,840.8 km
B*
6.0731e-4
RAAN
352.3068°
Arg perigee
92.2079°
Mean anomaly
267.9073°
Rev number
6,961

§ Raw data

STARLINK-345311 64750U 25144AC  26263.73980350  .00020203  00000+0  60731-3 0  99982 64750  53.1608 352.3068 0001299  92.2079 267.9073 15.34408381 69617

JSON: /api/v1/satellites/64750 · /tle

For live sub-satellite position, see the globe view (requires WebGL).

§ Visibility from observer

Set your observer location to see the next 7 days of passes ≥ 10°. The values pass through the URL so the page stays shareable.

No JS? Fill the form by hand. The geolocation button needs JavaScript.